Flag for Germany Weather past 2 weeks in Dachau, Bavaria, Germany

Now
55 °F

Passing clouds.


Feels Like: 53 °F
Forecast: 43 / 67 °F
Wind: 8 mph from East

Location: Oberpfaffenhofen


UV Index: 3 (Moderate)

Visibility: N/A


Pressure: 29.86 "Hg

Humidity: 67%

Dew point: 45 °F

Location of DachauLocation

Historic Weather in Dachau

°F

Dachau temperature yesterday

Maximum temperature yesterday: 68 °F (at 3:50 PM)
Minimum temperature yesterday: 39 °F (at 6:50 AM)
Average temperature yesterday: 60 °F

Past Weeks' High & Low Weather Summary

 TemperatureHumidityPressure
High68 °F (Apr 24, 3:50 PM)100% (Apr 12, 7:50 AM)30.33 "Hg (Apr 12, 7:50 AM)
Low25 °F (Apr 17, 6:50 AM)27% (Apr 17, 11:50 AM)29.62 "Hg (Apr 21, 12:20 PM)
Average50 °F61%30.08 "Hg
* Reported Apr 10 8:20 AM — Apr 25 8:20 AM, Dachau, Weather by CustomWeather, © 2014

Note: Actual official high and low records may vary slightly from our data, if they occured in-between our weather recording intervals... More about our weather records

Advertising

Historic Weather Conditions — Data for Previous 24 hours

 ConditionsComfort  
Time TempWeatherWind HumidityBarometerVisibility
8:20 AM
Apr 25
50 °FPassing clouds.6 mph76%29.86 "HgN/A
7:50 AM48 °FSunny.7 mph82%29.86 "Hg10 mi
7:20 AM46 °FSunny.2 mph87%29.86 "Hg10 mi
6:50 AM45 °FClear.2 mph87%29.86 "Hg10 mi
6:50 PM
Apr 24
64 °FSunny.10 mph40%29.98 "Hg10 mi
6:20 PM66 °FPassing clouds.9 mph37%29.98 "HgN/A
5:50 PM66 °FSunny.13 mph37%29.98 "Hg10 mi
5:20 PM66 °FPassing clouds.10 mph40%29.98 "HgN/A
4:50 PM68 °FPassing clouds.8 mph33%29.98 "HgN/A
4:20 PM66 °FPassing clouds.9 mph35%30.01 "HgN/A
3:50 PM68 °FPassing clouds.10 mph35%30.01 "HgN/A
3:20 PM66 °FPassing clouds.10 mph37%30.04 "HgN/A
2:50 PM66 °FPassing clouds.10 mph37%30.04 "HgN/A
2:20 PM66 °FSunny.12 mph40%30.04 "Hg10 mi
1:50 PM66 °FSunny.13 mph43%30.04 "Hg10 mi
1:20 PM64 °FSunny.13 mph46%30.07 "Hg10 mi
12:50 PM64 °FSunny.10 mph49%30.07 "Hg10 mi
12:20 PM63 °FSunny.7 mph52%30.07 "Hg10 mi
11:50 AM63 °FSunny.6 mph56%30.07 "Hg10 mi
11:20 AM64 °FSunny.1 mph56%30.09 "Hg10 mi
10:50 AM63 °FSunny.2 mph56%30.09 "Hg10 mi
10:20 AM59 °FSunny.3 mph63%30.09 "Hg10 mi
9:50 AM55 °FSunny.6 mph72%30.09 "Hg10 mi
9:20 AM54 °FSunny.6 mph72%30.09 "Hg10 mi
Weather by CustomWeather, © 2014

See weather overview